Ely, MN

10:48 AM CDT on August 16, 2017 (GMT -0500)
Ely Municipal

Weather History for KELO - March, 2012

Change the Weather History Date:

Saturday, March 24, 2012

  Actual Average Record
Temperature  
Mean Temperature 52 °F -  
Max Temperature 62 °F 37 °F 64 °F (2007)
Min Temperature 42 °F 16 °F -20 °F (2014)
Degree Days  
Heating Degree Days 13    
Growing Degree Days 2 (Base 50)    
Moisture  
Dew Point 47 °F    
Average Humidity 88    
Maximum Humidity 100    
Minimum Humidity 68    
Precipitation  
Precipitation 0.00 in - - ()
Sea Level Pressure  
Sea Level Pressure 29.92 in    
Wind  
Wind Speed 2 mph (WSW)    
Max Wind Speed 15 mph    
Max Gust Speed 23 mph    
Visibility 5 miles    
Events Fog , Rain    
Averages and records for this station are not official NWS values.
T = Trace of Precipitation, MM = Missing Value Source: NWS Daily Summary

Daily Weather History Graph

Daily Weather History Graph

Search for Another Location

Airport or City:

Trip Planner

Search our weather history database for the weather conditions in past years. The results will help you decide how hot, cold, wet, or windy it might be!

Date:

Astronomy

Mar. 24, 2012 Rise Set
Actual Time 7:01 AM CDT 7:26 PM CDT
Civil Twilight 6:30 AM CDT 7:57 PM CDT
Nautical Twilight 5:53 AM CDT 8:34 PM CDT
Astronomical Twilight 5:15 AM CDT 9:12 PM CDT
Moon 7:28 AM CDT (3/24) 10:01 PM CDT (3/24)
Length of Visible Light 13h 27m
Length of Day
12h 25m
Waxing Crescent, 4% of the Moon is Illuminated
Mar 24
Waxing Crescent
Mar 30
First Quarter
Apr 6
Full
Apr 13
Last Quarter
Apr 21
New

Hourly Weather History & Observations

Time (CDT) Temp. Windchill Dew Point Humidity Pressure Visibility Wind Dir Wind Speed Gust Speed Precip Events Conditions
12:12 AM 46.4 °F - 44.6 °F 93% 29.94 in 0.5 mi Calm Calm - N/A Fog Fog
12:32 AM 46.4 °F - 44.6 °F 93% 29.93 in 0.5 mi Calm Calm - N/A Fog Fog
12:53 AM 46.4 °F - 44.6 °F 93% 29.93 in 0.2 mi Calm Calm - N/A Fog Fog
1:13 AM 44.6 °F - 44.6 °F 100% 29.94 in 0.2 mi Calm Calm - N/A Fog Fog
1:33 AM 44.6 °F - 44.6 °F 100% 29.94 in 0.2 mi Calm Calm - N/A Fog Fog
1:53 AM 44.6 °F - 44.6 °F 100% 29.94 in 0.2 mi Calm Calm - N/A Fog Fog
2:12 AM 44.6 °F - 42.8 °F 93% 29.94 in 0.2 mi Calm Calm - N/A Fog Fog
2:33 AM 44.6 °F - 42.8 °F 93% 29.93 in 0.2 mi Calm Calm - N/A Fog Fog
2:53 AM 44.6 °F - 42.8 °F 93% 29.93 in 0.2 mi Calm Calm - N/A Fog Fog
3:12 AM 44.6 °F - 42.8 °F 93% 29.93 in 0.2 mi Calm Calm - N/A Fog Fog
3:33 AM 44.6 °F - 42.8 °F 93% 29.93 in 0.2 mi Calm Calm - N/A Fog Fog
3:52 AM 44.6 °F - 42.8 °F 93% 29.93 in 0.2 mi Calm Calm - N/A Fog Fog
4:13 AM 44.6 °F - 42.8 °F 93% 29.93 in 0.5 mi Calm Calm - N/A Fog Fog
4:33 AM 44.6 °F - 42.8 °F 93% 29.92 in 0.5 mi Calm Calm - N/A Fog Fog
4:52 AM 44.6 °F - 42.8 °F 93% 29.93 in 0.5 mi Calm Calm - N/A Fog Fog
5:13 AM 42.8 °F - 42.8 °F 100% 29.93 in 0.5 mi Calm Calm - N/A Rain Light Rain
5:33 AM 44.6 °F - 42.8 °F 93% 29.93 in 0.8 mi Calm Calm - N/A   Overcast
5:52 AM 42.8 °F - 42.8 °F 100% 29.93 in 0.8 mi Calm Calm - N/A   Overcast
6:13 AM 42.8 °F - 42.8 °F 100% 29.93 in 0.8 mi Calm Calm - N/A   Overcast
6:33 AM 44.6 °F - 42.8 °F 93% 29.92 in 0.8 mi Calm Calm - N/A   Overcast
6:52 AM 42.8 °F - 42.8 °F 100% 29.92 in 0.5 mi Calm Calm - N/A Fog Fog
7:13 AM 42.8 °F - 42.8 °F 100% 29.93 in 0.2 mi Calm Calm - N/A Fog Fog
7:33 AM 42.8 °F - 42.8 °F 100% 29.94 in 0.2 mi Calm Calm - N/A Fog Fog
7:52 AM 42.8 °F - 42.8 °F 100% 29.94 in 0.2 mi Calm Calm - N/A Fog Fog
8:13 AM 44.6 °F - 42.8 °F 93% 29.94 in 0.2 mi Calm Calm - N/A Fog Fog
8:33 AM 44.6 °F - 42.8 °F 93% 29.94 in 0.2 mi Calm Calm - N/A Fog Fog
8:52 AM 44.6 °F - 44.6 °F 100% 29.94 in 0.2 mi Calm Calm - N/A Fog Fog
9:12 AM 46.4 °F - 44.6 °F 93% 29.94 in 1.2 mi Calm Calm - N/A   Overcast
9:33 AM 46.4 °F - 46.4 °F 100% 29.94 in 1.8 mi Calm Calm - N/A   Overcast
9:53 AM 48.2 °F - 46.4 °F 93% 29.94 in 1.2 mi Calm Calm - N/A   Overcast
10:12 AM 48.2 °F - 46.4 °F 93% 29.94 in 2.5 mi Calm Calm - N/A   Overcast
10:33 AM 48.2 °F - 48.2 °F 100% 29.93 in 4.0 mi SW 4.6 mph - N/A   Overcast
10:52 AM 48.2 °F - 48.2 °F 100% 29.94 in 7.0 mi SSW 5.8 mph - N/A   Overcast
11:13 AM 50.0 °F - 48.2 °F 94% 29.94 in 10.0 mi SSW 5.8 mph - N/A   Overcast
11:32 AM 50.0 °F - 48.2 °F 94% 29.93 in 10.0 mi SSW 5.8 mph - N/A   Overcast
11:53 AM 51.8 °F - 48.2 °F 88% 29.93 in 10.0 mi SSW 4.6 mph - N/A   Overcast
12:13 PM 51.8 °F - 48.2 °F 88% 29.93 in 10.0 mi SSW 5.8 mph - N/A   Overcast
12:32 PM 53.6 °F - 50.0 °F 88% 29.92 in 10.0 mi SSW 5.8 mph - N/A   Overcast
12:53 PM 55.4 °F - 50.0 °F 82% 29.91 in 10.0 mi SW 3.5 mph - N/A   Mostly Cloudy
1:13 PM 57.2 °F - 50.0 °F 77% 29.91 in 10.0 mi WSW 6.9 mph - N/A   Mostly Cloudy
1:32 PM 57.2 °F - 50.0 °F 77% 29.90 in 10.0 mi Calm Calm - N/A   Mostly Cloudy
1:53 PM 59.0 °F - 50.0 °F 72% 29.90 in 10.0 mi WSW 5.8 mph - N/A   Mostly Cloudy
2:13 PM 60.8 °F - 51.8 °F 72% 29.89 in 10.0 mi SW 8.1 mph - N/A   Mostly Cloudy
2:32 PM 62.6 °F - 51.8 °F 68% 29.89 in 10.0 mi SW 9.2 mph - N/A   Mostly Cloudy
2:53 PM 62.6 °F - 51.8 °F 68% 29.89 in 10.0 mi WSW 8.1 mph - N/A   Overcast
3:13 PM 62.6 °F - 51.8 °F 68% 29.88 in 10.0 mi WSW 4.6 mph - N/A   Overcast
3:32 PM 62.6 °F - 51.8 °F 68% 29.89 in 10.0 mi West 6.9 mph - N/A   Overcast
3:53 PM 62.6 °F - 51.8 °F 68% 29.89 in 10.0 mi West 5.8 mph - N/A   Overcast
4:13 PM 62.6 °F - 51.8 °F 68% 29.89 in 10.0 mi West 11.5 mph 17.3 mph N/A   Overcast
4:32 PM 62.6 °F - 51.8 °F 68% 29.90 in 10.0 mi WNW 9.2 mph 18.4 mph N/A   Overcast
4:53 PM 62.6 °F - 51.8 °F 68% 29.90 in 10.0 mi West 15.0 mph 19.6 mph N/A   Overcast
5:12 PM 60.8 °F - 51.8 °F 72% 29.91 in 10.0 mi West 13.8 mph 17.3 mph N/A   Overcast
5:32 PM 60.8 °F - 51.8 °F 72% 29.92 in 10.0 mi West 12.7 mph 19.6 mph N/A   Overcast
5:53 PM 59.0 °F - 51.8 °F 77% 29.92 in 10.0 mi West 12.7 mph 19.6 mph N/A   Overcast
6:12 PM 59.0 °F - 50.0 °F 72% 29.92 in 10.0 mi West 10.4 mph - N/A   Overcast
6:33 PM 55.4 °F - 50.0 °F 82% 29.94 in 10.0 mi WNW 13.8 mph 23.0 mph N/A   Overcast
6:53 PM 55.4 °F - 48.2 °F 77% 29.95 in 10.0 mi WNW 10.4 mph 18.4 mph N/A   Overcast
7:12 PM 53.6 °F - 48.2 °F 82% 29.95 in 10.0 mi NW 10.4 mph 20.7 mph N/A   Overcast
7:33 PM 51.8 °F - 44.6 °F 76% 29.96 in 10.0 mi NW 16.1 mph 23.0 mph N/A   Overcast
7:53 PM 50.0 °F - 42.8 °F 76% 29.98 in 10.0 mi WNW 15.0 mph 24.2 mph N/A   Overcast
8:12 PM 48.2 °F - 42.8 °F 82% 29.99 in 10.0 mi NW 12.7 mph 20.7 mph N/A   Overcast
8:33 PM 44.6 °F 38.1 °F 39.2 °F 81% 30.01 in 10.0 mi NNW 13.8 mph 24.2 mph N/A   Overcast
8:52 PM 42.8 °F 34.8 °F 37.4 °F 81% 30.02 in 10.0 mi NW 17.3 mph 20.7 mph N/A   Overcast
9:13 PM 41.0 °F 34.7 °F 35.6 °F 81% 30.02 in 10.0 mi NW 10.4 mph 19.6 mph N/A   Overcast
9:33 PM 39.2 °F 32.5 °F 35.6 °F 87% 30.04 in 10.0 mi NW 10.4 mph 16.1 mph N/A   Overcast
9:52 PM 39.2 °F 31.2 °F 35.6 °F 87% 30.05 in 10.0 mi WNW 13.8 mph 19.6 mph N/A   Overcast
10:13 PM 37.4 °F 29.8 °F 33.8 °F 87% 30.05 in 10.0 mi WNW 11.5 mph 19.6 mph N/A   Overcast
10:33 PM 37.4 °F 31.4 °F 33.8 °F 87% 30.06 in 10.0 mi NW 8.1 mph 18.4 mph N/A   Overcast
10:52 PM 35.6 °F 28.0 °F 32.0 °F 87% 30.07 in 10.0 mi NW 10.4 mph 18.4 mph N/A   Overcast
11:13 PM 35.6 °F 27.5 °F 30.2 °F 81% 30.06 in 10.0 mi NW 11.5 mph 17.3 mph N/A   Overcast
11:33 PM 35.6 °F 29.2 °F 30.2 °F 81% 30.06 in 10.0 mi NW 8.1 mph 19.6 mph N/A   Overcast
11:52 PM 35.6 °F 29.2 °F 30.2 °F 81% 30.07 in 10.0 mi NW 8.1 mph - N/A   Overcast